Temp
-7 -7 -6 -6 -6 -6 -6 -6 -6 -6 -6 -6 -7 -6 -6 -6 -6 -6 -6 -7 -7 -7 -7 -7 -7 -7 -7 -7 -7 -7 -7 -7 -7 -9 -8 -7 -7 -7 -6 -6 -7 -7 -7 -7 -8
-7 -7 -7 -7 -6 -6 -6 -6 -6 -6 -7 -7 -6 -6 -6 -6 -6 -6 -6 -6 -6 -6 -6 -6 -6 -6 -6 -6 -7 -7 -7 -7 -8 -8 -7 -7 -7 -7 -7 -7 -7 -7 -7 -7 -7
-7 -7 -7 -7 -7 -7 -7 -6 -6 -6 -6 -6 -6 -6 -7 -6 -6 -6 -6 -6 -6 -6 -6 -6 -6 -6 -6 -6 -6 -6 -7 -7 -6 -7 -7 -7 -7 -7 -7 -7 -7 -7 -7 -7 -7
-7 -7 -7 -7 -7 -7 -7 -7 -7 -6 -6 -6 -6 -7 -7 -7 -6 -7 -6 -6 -6 -6 -6 -6 -6 -6 -6 -6 -6 -6 -6 -6 -6 -6 -7 -6 -6 -7 -7 -7 -8 -8 -6 -7 -7
-7 -7 -7 -7 -7 -7 -7 -7 -7 -7 -7 -7 -7 -7 -7 -7 -6 -7 -7 -7 -6 -6 -6 -6 -6 -6 -6 -6 -6 -6 -6 -6 -6 -6 -6 -6 -6 -6 -6 -8 -8 -7 -7 -8 -8
-7 -7 -7 -7 -7 -7 -7 -7 -7 -7 -7 -7 -7 -7 -7 -7 -7 -7 -7 -7 -7 -7 -7 -7 -7 -6 -6 -6 -6 -6 -6 -6 -6 -6 -6 -6 -6 -6 -7 -7 -8 -8 -7 -8 -8
-7 -7 -7 -7 -7 -7 -7 -7 -7 -7 -7 -7 -7 -7 -7 -7 -7 -7 -7 -7 -7 -7 -7 -7 -7 -7 -7 -7 -7 -7 -7 -6 -6 -6 -6 -6 -6 -6 -7 -6 -7 -8 -8 -8 -9
-8 -8 -8 -8 -8 -8 -8 -8 -8 -8 -8 -8 -8 -8 -7 -7 -7 -7 -7 -7 -7 -7 -7 -7 -7 -7 -7 -7 -7 -7 -7 -7 -7 -7 -6 -6 -7 -7 -7 -6 -7 -8 -9 -9 -8
-8 -8 -8 -8 -8 -8 -8 -8 -8 -8 -8 -8 -8 -8 -8 -8 -8 -8 -8 -8 -7 -7 -7 -7 -7 -7 -7 -7 -7 -7 -7 -7 -8 -7 -7 -6 -7 -7 -6 -7 -8 -8 -9 -9 -9
-7 -7 -7 -7 -7 -7 -8 -8 -8 -8 -8 -8 -8 -8 -8 -8 -8 -8 -8 -8 -8 -8 -8 -8 -8 -8 -8 -8 -8 -8 -8 -8 -8 -7 -7 -7 -7 -7 -7 -7 -7 -8 -8 -9 -9
-7 -7 -8 -8 -8 -9 -9 -9 -9 -9 -9 -9 -9 -9 -9 -9 -9 -9 -9 -9 -9 -9 -9 -9 -9 -8 -9 -9 -9 -9 -8 -8 -9 -8 -7 -7 -7 -7 -7 -7 -8 -8 -8 -8 -8
-8 -9 -9 -9 -10 -10 -10 -10 -10 -10 -10 -10 -10 -10 -10 -10 -10 -10 -10 -10 -10 -10 -10 -10 -9 -10 -10 -10 -9 -9 -9 -9 -9 -9 -8 -8 -8 -8 -8 -8 -8 -8 -8 -7 -8
-9 -9 -10 -10 -10 -10 -10 -10 -10 -10 -10 -10 -10 -10 -10 -10 -10 -10 -10 -11 -11 -11 -11 -11 -11 -11 -11 -11 -10 -10 -10 -10 -10 -10 -8 -9 -8 -8 -8 -9 -8 -9 -8 -8 -8
-9 -10 -10 -10 -10 -10 -10 -10 -10 -10 -10 -10 -10 -10 -11 -11 -11 -11 -11 -11 -11 -12 -12 -12 -13 -13 -11 -11 -11 -11 -11 -11 -11 -10 -10 -10 -9 -10 -10 -8 -8 -8 -9 -8 -8
-9 -10 -10 -10 -10 -10 -10 -10 -10 -10 -11 -10 -10 -11 -11 -11 -11 -11 -12 -12 -12 -13 -13 -13 -15 -13 -15 -12 -13 -12 -12 -14 -11 -11 -11 -12 -10 -10 -12 -11 -8 -8 -8 -9 -9
-10 -10 -10 -10 -10 -10 -10 -10 -10 -10 -10 -11 -11 -11 -11 -11 -12 -12 -12 -12 -12 -13 -13 -13 -15 -15 -15 -15 -15 -15 -13 -13 -14 -13 -13 -11 -13 -12 -12 -12 -11 -8 -9 -9 -9
-10 -10 -10 -10 -10 -10 -10 -10 -11 -10 -11 -11 -11 -11 -11 -12 -12 -12 -13 -13 -13 -13 -13 -15 -15 -15 -14 -14 -14 -14 -14 -14 -15 -14 -13 -13 -13 -13 -13 -13 -12 -10 -10 -10 -10
-10 -10 -10 -10 -10 -10 -11 -10 -11 -11 -11 -11 -11 -12 -12 -12 -12 -13 -13 -14 -14 -14 -14 -15 -15 -16 -15 -14 -16 -15 -16 -15 -14 -13 -13 -13 -13 -13 -12 -13 -13 -13 -12 -12 -11
-10 -10 -10 -11 -11 -11 -11 -11 -11 -11 -11 -11 -12 -12 -12 -12 -13 -14 -14 -14 -15 -14 -15 -17 -15 -15 -14 -15 -15 -15 -15 -15 -14 -14 -14 -13 -13 -14 -13 -13 -14 -13 -13 -13 -13
-10 -11 -11 -11 -11 -11 -11 -11 -11 -11 -11 -12 -12 -12 -13 -13 -14 -15 -15 -16 -17 -15 -16 -17 -17 -16 -15 -15 -16 -16 -16 -16 -16 -16 -14 -13 -13 -13 -14 -14 -14 -14 -14 -14 -13
-11 -11 -11 -11 -11 -11 -11 -11 -11 -11 -11 -12 -12 -13 -13 -14 -15 -15 -16 -18 -17 -17 -17 -18 -17 -17 -17 -16 -17 -17 -16 -17 -16 -16 -16 -16 -15 -14 -14 -13 -14 -14 -14 -15 -15
-11 -11 -11 -11 -11 -11 -11 -11 -11 -11 -12 -12 -13 -13 -13 -14 -15 -16 -17 -18 -17 -18 -18 -18 -17 -18 -18 -17 -17 -17 -17 -16 -16 -16 -16 -17 -16 -15 -15 -15 -14 -14 -15 -15 -15
-11 -11 -11 -11 -11 -11 -11 -11 -12 -12 -12 -12 -13 -13 -13 -15 -16 -16 -18 -18 -18 -18 -18 -18 -18 -18 -19 -19 -18 -17 -17 -18 -18 -17 -17 -17 -17 -16 -16 -16 -16 -16 -16 -16 -16
-11 -11 -11 -11 -11 -12 -12 -12 -12 -12 -12 -13 -13 -13 -14 -15 -16 -17 -18 -18 -18 -19 -19 -19 -18 -18 -18 -17 -17 -17 -17 -17 -17 -18 -17 -17 -18 -17 -17 -16 -17 -16 -16 -15 -15
-12 -12 -12 -12 -11 -12 -12 -12 -12 -12 -12 -13 -13 -14 -15 -16 -17 -18 -18 -18 -18 -19 -19 -18 -18 -18 -18 -18 -18 -17 -18 -18 -17 -18 -18 -18 -18 -17 -17 -17 -16 -16 -16 -16 -16
-12 -12 -12 -12 -12 -12 -12 -12 -12 -12 -13 -13 -14 -14 -15 -16 -17 -18 -18 -19 -19 -19 -19 -18 -19 -18 -18 -18 -18 -18 -18 -18 -18 -18 -18 -18 -18 -19 -18 -17 -17 -17 -17 -17 -17
-13 -12 -12 -12 -12 -13 -12 -12 -12 -13 -13 -14 -14 -14 -15 -17 -17 -18 -18 -19 -19 -19 -19 -19 -19 -19 -19 -19 -18 -18 -18 -18 -19 -18 -19 -19 -20 -18 -18 -18 -19 -19 -18 -18 -18
Height
5884 5883 5882 5880 5879 5878 5878 5878 5878 5878 5878 5878 5878 5878 5878 5877 5877 5878 5879 5880 5881 5882 5882 5883 5884 5885 5886 5887 5888 5889 5891 5893 5896 5897 5898 5898 5899 5899 5901 5903 5905 5905 5906 5898 5908
5882 5880 5879 5878 5876 5875 5874 5874 5874 5874 5874 5874 5874 5874 5874 5874 5874 5874 5876 5877 5877 5879 5880 5881 5882 5883 5884 5884 5885 5885 5886 5888 5890 5889 5888 5892 5894 5895 5898 5900 5901 5902 5901 5902 5903
5877 5876 5875 5874 5873 5872 5871 5870 5869 5869 5869 5869 5870 5870 5870 5870 5870 5872 5872 5873 5873 5875 5876 5878 5879 5880 5881 5882 5883 5883 5883 5882 5882 5884 5884 5887 5891 5890 5892 5896 5898 5900 5896 5899 5901
5872 5871 5870 5869 5868 5867 5866 5865 5865 5865 5864 5865 5865 5865 5865 5866 5866 5868 5868 5869 5870 5871 5872 5874 5875 5877 5878 5879 5879 5880 5880 5879 5879 5879 5880 5881 5884 5885 5885 5890 5892 5890 5892 5898 5899
5868 5867 5865 5863 5862 5861 5860 5860 5860 5859 5859 5859 5860 5860 5860 5861 5860 5862 5864 5865 5865 5866 5867 5869 5871 5872 5873 5874 5875 5876 5876 5875 5875 5875 5876 5877 5878 5881 5880 5880 5882 5884 5888 5892 5894
5862 5861 5859 5858 5856 5854 5854 5854 5853 5853 5853 5853 5853 5853 5854 5854 5857 5857 5858 5859 5860 5861 5862 5863 5865 5866 5868 5869 5870 5870 5870 5871 5871 5871 5871 5873 5873 5875 5878 5876 5876 5878 5882 5885 5888
5856 5854 5853 5851 5850 5848 5847 5846 5846 5846 5845 5846 5846 5846 5847 5846 5848 5850 5851 5853 5854 5855 5856 5857 5858 5860 5861 5862 5864 5864 5865 5865 5866 5866 5867 5868 5869 5870 5872 5872 5872 5874 5876 5879 5881
5851 5849 5847 5845 5843 5842 5841 5840 5839 5838 5838 5838 5838 5839 5839 5840 5841 5842 5844 5845 5846 5847 5849 5851 5851 5853 5854 5854 5858 5858 5859 5859 5860 5860 5861 5862 5865 5865 5865 5867 5869 5869 5871 5871 5874
5848 5845 5843 5841 5839 5837 5835 5833 5832 5832 5832 5832 5832 5832 5829 5832 5832 5834 5834 5835 5837 5839 5840 5842 5843 5844 5846 5847 5849 5850 5852 5852 5853 5854 5854 5857 5859 5859 5858 5862 5863 5864 5866 5867 5866
5844 5842 5839 5836 5834 5832 5830 5828 5827 5827 5826 5825 5825 5824 5824 5824 5824 5824 5824 5825 5827 5828 5831 5834 5834 5835 5838 5839 5842 5844 5843 5846 5847 5845 5849 5850 5853 5853 5852 5855 5857 5859 5860 5861 5860
5840 5837 5834 5831 5829 5827 5825 5824 5824 5823 5820 5818 5818 5816 5815 5814 5815 5814 5814 5815 5816 5819 5821 5823 5824 5825 5829 5830 5833 5835 5834 5838 5839 5839 5839 5844 5845 5847 5846 5847 5850 5851 5852 5853 5851
5837 5834 5832 5829 5827 5826 5824 5822 5820 5819 5817 5815 5814 5812 5810 5809 5807 5806 5808 5807 5807 5808 5810 5811 5813 5818 5819 5820 5820 5824 5825 5830 5831 5830 5830 5835 5836 5839 5840 5840 5841 5843 5843 5845 5846
5834 5832 5830 5829 5827 5825 5823 5821 5818 5816 5814 5812 5810 5808 5806 5804 5802 5800 5800 5798 5798 5799 5799 5802 5806 5806 5807 5808 5810 5814 5817 5820 5822 5821 5822 5826 5828 5829 5832 5830 5831 5834 5835 5838 5838
5832 5831 5829 5827 5826 5823 5821 5819 5816 5813 5810 5809 5806 5804 5802 5800 5798 5796 5794 5793 5792 5791 5792 5792 5795 5794 5797 5799 5800 5803 5807 5809 5811 5813 5814 5816 5820 5820 5820 5819 5822 5824 5826 5828 5832
5830 5829 5827 5824 5823 5820 5818 5814 5812 5810 5809 5805 5802 5799 5797 5796 5793 5791 5789 5788 5786 5784 5784 5786 5786 5787 5787 5789 5791 5793 5797 5797 5800 5802 5805 5810 5810 5819 5812 5808 5808 5815 5817 5819 5820
5828 5826 5824 5822 5819 5817 5814 5811 5808 5807 5802 5801 5798 5796 5793 5790 5788 5785 5784 5781 5780 5778 5776 5776 5780 5779 5779 5780 5781 5782 5785 5789 5788 5793 5793 5801 5805 5809 5811 5802 5796 5800 5806 5808 5809
5824 5823 5820 5817 5815 5812 5810 5808 5805 5802 5800 5797 5793 5790 5787 5786 5781 5780 5776 5774 5773 5770 5769 5769 5769 5767 5768 5771 5773 5774 5777 5781 5783 5785 5785 5794 5796 5803 5795 5794 5786 5788 5796 5798 5798
5821 5819 5816 5813 5810 5808 5805 5803 5800 5798 5795 5791 5787 5784 5780 5777 5774 5772 5769 5767 5760 5761 5762 5766 5764 5761 5755 5761 5765 5769 5770 5774 5777 5781 5785 5786 5784 5785 5781 5784 5782 5779 5782 5788 5788
5816 5814 5811 5808 5805 5803 5801 5798 5795 5792 5789 5785 5781 5777 5772 5768 5768 5760 5759 5756 5748 5749 5750 5754 5755 5749 5747 5752 5754 5759 5758 5764 5759 5765 5769 5774 5771 5769 5772 5774 5776 5773 5772 5776 5778
5810 5809 5806 5803 5800 5798 5795 5793 5789 5786 5782 5779 5775 5770 5765 5760 5755 5751 5745 5739 5735 5738 5738 5740 5741 5740 5739 5742 5746 5747 5752 5752 5754 5754 5756 5761 5761 5758 5756 5760 5760 5759 5761 5762 5767
5804 5803 5801 5798 5795 5792 5789 5784 5781 5778 5775 5771 5766 5762 5756 5750 5745 5740 5736 5728 5726 5727 5726 5728 5730 5736 5733 5734 5740 5739 5741 5742 5745 5743 5748 5750 5752 5742 5748 5753 5737 5743 5751 5753 5754
5797 5796 5794 5791 5789 5786 5781 5778 5774 5771 5767 5763 5758 5753 5747 5740 5734 5728 5725 5719 5717 5716 5717 5716 5717 5720 5725 5724 5726 5731 5733 5732 5733 5738 5738 5740 5744 5734 5738 5739 5736 5736 5737 5742 5742
5789 5788 5787 5785 5781 5777 5775 5771 5766 5763 5759 5754 5749 5744 5736 5730 5724 5718 5714 5710 5709 5707 5708 5708 5710 5710 5713 5718 5715 5717 5719 5721 5723 5725 5726 5728 5731 5728 5727 5726 5727 5727 5728 5730 5732
5784 5782 5781 5778 5775 5771 5767 5764 5759 5756 5751 5746 5740 5735 5727 5721 5714 5710 5705 5701 5702 5700 5701 5701 5703 5704 5706 5707 5705 5704 5706 5709 5710 5712 5716 5717 5720 5716 5715 5715 5713 5716 5718 5718 5718
5776 5775 5772 5770 5767 5763 5759 5756 5751 5747 5743 5738 5732 5726 5719 5713 5707 5702 5698 5695 5693 5692 5694 5694 5695 5695 5696 5697 5697 5698 5699 5699 5700 5702 5703 5708 5706 5703 5702 5701 5701 5704 5707 5706 5705
5768 5766 5765 5762 5758 5755 5752 5748 5743 5738 5735 5729 5724 5717 5711 5705 5700 5696 5691 5689 5687 5686 5686 5686 5688 5687 5688 5689 5688 5688 5688 5689 5690 5691 5692 5693 5696 5695 5692 5693 5693 5693 5691 5691 5691
5760 5757 5754 5754 5750 5747 5743 5739 5735 5731 5727 5721 5716 5710 5704 5698 5693 5689 5685 5682 5680 5679 5678 5678 5680 5680 5681 5680 5679 5680 5680 5678 5679 5680 5682 5683 5685 5682 5682 5683 5683 5682 5682 5681 5681
Wind_Speed
16 15 15 14 13 15 16 17 18 19 21 22 22 22 20 17 15 14 13 12 12 10 9 8 9 9 12 15 17 19 19 18 18 19 22 29 22 24 19 18 21 23 31 33 22
19 18 18 17 16 16 17 19 20 22 22 23 23 22 20 19 18 16 14 13 14 13 11 10 8 7 7 7 8 11 14 18 21 28 32 31 28 28 23 19 22 27 28 35 27
20 20 21 20 20 19 19 19 20 21 21 22 23 22 22 21 21 16 18 18 18 16 15 14 12 11 10 9 9 9 9 17 21 22 27 30 28 31 29 25 24 25 35 36 36
22 22 22 23 24 23 23 23 22 21 23 24 24 24 23 23 26 20 21 20 20 20 19 18 17 15 14 13 14 14 15 17 18 18 20 19 20 29 32 29 29 37 32 32 39
21 22 23 23 24 25 26 26 26 25 24 25 26 26 25 25 26 24 24 23 23 24 24 23 22 21 20 18 19 18 19 20 21 21 21 19 17 17 24 32 35 36 30 27 31
23 23 23 23 24 25 25 27 28 30 29 28 28 30 31 31 27 28 28 28 27 27 27 27 27 26 25 24 22 23 24 24 25 25 23 22 20 18 15 24 31 36 31 31 31
25 24 23 23 24 25 26 25 26 27 30 32 32 31 32 36 34 33 33 34 33 32 32 31 31 30 29 28 26 26 26 27 27 28 26 24 23 20 18 19 22 26 32 33 35
22 22 22 22 22 23 23 25 26 27 27 28 30 32 36 35 37 38 39 39 38 37 36 34 34 34 33 35 30 32 31 30 29 31 29 28 23 24 23 19 17 23 27 34 34
21 20 20 20 21 21 21 23 25 27 28 29 30 30 35 34 37 39 40 41 42 42 41 39 39 38 37 37 35 34 32 32 32 33 32 31 24 24 28 21 21 24 27 30 35
22 23 23 23 23 22 22 22 23 23 23 26 29 33 34 35 35 36 38 41 42 43 43 42 41 41 39 38 36 32 34 33 33 38 34 35 29 28 32 26 23 24 28 33 35
24 23 22 20 18 16 15 16 17 16 17 19 21 25 27 29 30 35 37 39 40 42 41 40 42 44 39 39 39 36 41 35 31 37 41 33 35 33 33 31 27 26 29 34 38
23 19 15 13 14 14 15 15 16 15 16 16 18 18 20 23 29 31 31 34 37 37 37 42 43 38 39 41 45 42 45 40 40 41 45 37 38 37 34 36 32 31 34 29 30
14 9 10 13 13 14 16 15 16 20 20 19 20 22 21 21 21 25 29 31 33 34 34 36 36 39 42 44 46 42 42 41 42 41 46 40 40 41 36 40 40 34 36 32 33
7 10 12 13 14 17 18 18 18 21 23 22 22 21 22 24 23 22 23 26 30 32 32 35 33 38 41 43 44 45 42 42 42 43 43 36 39 37 36 46 43 42 39 38 34
9 9 12 15 18 21 24 23 22 21 23 24 23 24 24 24 24 24 25 25 26 29 28 31 31 34 34 40 39 41 38 34 42 41 40 34 40 23 31 42 50 44 44 41 39
11 13 16 18 21 23 22 23 19 18 21 23 25 25 26 27 27 28 26 28 28 29 31 30 23 32 29 32 36 38 39 39 35 35 37 40 29 23 27 40 48 53 43 42 43
13 16 19 20 22 22 22 23 22 19 21 25 27 29 29 27 31 29 32 31 31 32 31 26 27 36 40 37 36 39 38 33 30 30 38 28 30 27 36 44 51 53 43 42 43
14 17 18 20 20 23 25 23 21 21 24 28 29 31 33 34 35 34 34 32 38 36 32 23 26 30 41 34 30 24 25 28 29 29 27 26 31 40 45 46 50 51 52 45 44
16 17 19 20 21 23 22 21 21 23 26 28 31 35 37 39 37 40 35 36 43 38 32 25 31 40 43 32 28 29 28 24 38 39 26 21 28 39 42 45 50 56 57 51 46
19 19 20 22 23 24 24 22 24 25 27 28 32 35 37 40 41 36 39 40 41 37 33 31 36 35 41 39 35 33 28 31 33 39 39 35 26 36 42 43 51 54 52 48 43
21 21 20 21 24 25 25 26 26 26 28 30 34 38 41 44 39 37 36 35 39 32 32 34 37 35 41 40 31 29 33 35 33 36 30 35 44 43 31 26 27 38 37 41 42
23 23 22 23 25 25 28 28 27 27 29 31 35 39 42 42 38 36 32 33 31 27 27 33 37 38 37 39 38 37 36 28 34 32 35 35 33 39 42 44 50 34 26 36 36
25 24 24 24 26 29 28 28 27 27 29 32 37 39 43 40 36 35 30 31 27 25 26 26 25 28 27 31 40 41 43 45 47 42 46 42 37 39 41 47 48 50 50 48 46
24 25 23 24 24 27 29 28 29 27 29 33 37 39 43 38 36 31 28 29 22 26 21 23 23 24 24 24 29 32 34 33 38 42 48 48 41 44 47 44 46 50 51 49 48
24 25 26 26 26 26 28 29 29 30 30 33 37 39 41 34 32 30 28 26 25 23 22 25 23 26 29 31 37 38 38 38 35 34 35 32 34 40 46 46 54 55 53 54 54
27 27 26 25 26 27 28 30 30 30 30 34 36 40 40 32 29 27 28 25 24 23 22 25 21 23 26 28 32 33 34 33 35 38 38 38 42 43 47 52 50 50 53 53 53
29 28 29 27 28 27 30 31 31 30 30 33 36 38 37 32 29 27 26 24 24 22 23 24 22 23 24 25 29 27 25 33 34 33 31 34 32 42 44 44 38 34 31 30 30
Wind_Direction
307 304 302 298 292 278 276 275 270 264 264 264 264 265 264 260 259 259 257 254 250 243 240 246 252 250 248 247 247 248 247 242 238 247 244 247 247 247 245 251 237 234 232 239 202
291 293 294 293 289 285 277 271 270 270 269 262 262 262 255 257 254 255 252 252 250 241 240 240 242 246 248 245 244 245 242 239 235 234 244 247 248 250 248 246 245 238 235 224 223
295 289 284 283 283 282 279 279 277 271 267 259 260 262 258 257 253 254 250 249 248 250 245 243 243 243 249 258 257 257 242 236 248 245 251 253 249 252 250 242 245 243 240 228 236
297 294 289 282 276 273 275 276 274 276 266 261 261 260 259 259 253 250 252 251 249 250 249 246 247 249 251 256 259 257 256 259 261 265 257 254 248 247 250 244 235 234 235 232 239
298 295 291 288 284 278 272 270 272 272 269 265 262 261 262 259 254 255 253 254 254 254 252 251 251 252 256 256 257 260 260 263 265 265 262 263 264 250 252 241 238 243 242 240 238
301 297 292 289 287 284 280 274 269 268 267 266 264 261 260 260 260 255 253 255 259 259 258 255 256 255 259 259 257 256 258 260 264 268 267 266 265 271 261 257 245 244 245 245 245
303 301 297 293 287 283 281 279 276 271 268 265 264 263 262 261 259 257 257 259 260 260 259 259 259 258 257 258 257 259 259 259 261 266 268 265 264 271 254 260 261 249 243 242 244
317 313 308 305 301 295 287 281 278 275 273 269 266 264 262 261 261 260 259 259 259 259 259 260 262 261 260 260 260 261 261 262 263 261 266 266 265 264 260 262 252 249 242 243 243
330 327 321 316 315 313 303 290 281 276 275 274 272 272 268 265 264 262 260 259 259 259 259 260 260 260 260 262 260 260 262 262 261 259 262 262 264 263 263 262 248 246 243 245 246
326 323 319 316 315 312 307 301 296 295 289 283 278 275 273 270 268 266 264 262 259 258 259 259 259 260 258 258 262 265 262 255 258 265 253 261 260 261 264 261 257 250 246 242 243
324 321 320 323 327 329 328 326 321 321 310 300 287 279 279 276 273 270 263 260 261 260 259 258 257 257 257 255 253 246 251 252 253 256 261 257 259 257 261 261 257 252 250 249 250
324 327 337 352 2 3 356 353 355 351 348 344 334 324 310 295 281 274 270 268 265 262 256 255 253 255 252 250 250 247 254 253 254 256 261 260 260 257 258 261 256 250 251 256 258
332 1 11 1 355 355 355 354 353 348 345 345 345 341 334 322 312 297 282 273 268 259 257 255 258 249 247 248 249 250 250 250 251 256 256 259 259 261 258 256 257 256 256 254 253
353 349 350 348 346 342 338 331 331 334 340 344 343 340 338 336 321 311 307 290 275 269 259 255 251 249 249 248 251 249 251 249 250 250 259 266 257 266 262 258 257 256 255 254 251
328 329 332 331 334 331 330 326 319 319 331 333 335 331 325 328 323 319 307 298 289 274 260 256 251 249 249 250 250 253 244 252 248 250 249 248 257 259 257 265 257 252 256 257 252
311 315 322 323 324 325 324 325 321 322 327 329 326 324 320 316 314 312 307 298 288 279 268 259 240 248 246 249 245 243 249 247 253 251 250 250 240 252 241 261 265 255 256 259 260
304 313 318 322 324 321 322 321 316 315 317 322 322 321 314 309 304 306 303 297 286 278 273 263 247 253 254 257 259 256 253 250 253 249 255 249 245 238 232 232 251 262 258 255 257
299 311 317 321 323 325 323 320 316 311 311 315 314 316 311 306 302 302 299 293 282 271 259 243 248 248 266 251 246 249 252 245 246 246 253 251 237 234 239 235 244 252 257 258 258
295 307 315 323 327 329 324 320 317 314 314 314 314 316 313 310 305 303 297 283 268 271 256 243 241 248 251 258 248 248 233 231 231 226 248 240 226 228 240 241 241 249 255 256 254
290 302 310 318 322 325 322 312 310 312 315 314 315 316 314 311 312 304 294 280 275 271 260 243 236 247 249 252 258 254 243 242 249 240 229 217 243 228 230 236 245 249 250 253 250
283 292 302 311 317 319 321 315 312 313 315 312 314 315 314 315 316 300 290 276 283 279 268 256 249 240 251 259 256 264 255 256 257 259 257 247 231 246 240 232 211 242 257 253 248
279 288 296 305 313 316 315 313 309 310 312 310 312 314 317 319 316 303 293 282 290 276 268 254 257 252 246 261 263 256 254 239 253 254 263 254 261 268 256 244 250 241 243 258 254
284 284 293 301 309 313 314 309 308 308 311 312 315 317 320 323 315 308 296 289 282 272 270 265 262 256 258 254 258 254 256 250 249 248 253 254 256 258 262 264 261 264 270 268 267
282 279 282 293 304 308 310 308 305 307 310 314 316 319 323 326 318 311 300 292 279 276 266 262 255 250 242 243 244 251 259 255 256 255 251 253 258 260 258 263 263 261 267 270 269
289 279 285 294 302 307 308 308 305 306 309 313 316 319 326 326 318 311 304 293 286 272 264 263 260 254 247 239 245 252 259 262 259 253 249 249 246 251 251 258 257 264 268 270 269
292 286 281 289 297 304 307 306 304 304 306 312 317 319 327 323 318 309 302 293 285 280 268 258 257 254 256 257 256 254 254 257 257 257 252 245 242 239 249 260 266 267 265 267 267
291 290 285 286 292 300 305 305 304 303 304 311 316 320 327 323 318 311 304 293 284 278 269 264 259 264 265 263 264 266 264 253 253 251 251 250 249 248 250 256 260 265 268 271 272